Weather History for Quakertown, PA

Change the Weather History Date:

Saturday, March 30, 2013

  Actual Average (KABE) Record (KABE)
Temperature  
Mean Temperature 40 °F 44 °F  
Max Temperature 57 °F 55 °F 87 °F (1998)
Min Temperature 24 °F 33 °F 10 °F (1970)
Degree Days  
Heating Degree Days 24 21  
Month to date heating degree days 783  
Since 1 July heating degree days 5092  
Cooling Degree Days 0 0  
Month to date cooling degree days 0  
Year to date cooling degree days 0  
Moisture  
Dew Point 24 °F    
Average Humidity 58    
Maximum Humidity 100    
Minimum Humidity 25    
Precipitation  
Precipitation 0.00 in 0.12 in 1.34 in (1974)
Month to date precipitation 3.27  
Year to date precipitation 9.00  
Snow  
Snow 0.00 in 0.00 in 1.00 in (1942)
Month to date snowfall 4.8  
Since 1 July snowfall 31.8  
Snow Depth -    
Sea Level Pressure  
Sea Level Pressure 30.14 in    
Wind  
Wind Speed 2 mph (WSW)    
Max Wind Speed 12 mph    
Max Gust Speed 16 mph    
Visibility 10 miles    
Events      
T = Trace of Precipitation, MM = Missing Value Source: NWS Daily Summary

Daily Weather History Graph

Daily Weather History Graph

Search for Another Location

Airport:

Trip Planner

Search our weather history database for the weather conditions in past years. The results will help you decide how hot, cold, wet, or windy it might be!

Date:

Astronomy

Mar. 30, 2013 Rise Set
Actual Time 6:48 AM EDT 7:24 PM EDT
Civil Twilight 6:20 AM EDT 7:51 PM EDT
Nautical Twilight 5:48 AM EDT 8:24 PM EDT
Astronomical Twilight 5:15 AM EDT 8:57 PM EDT
Moon 11:29 PM EDT (3/30) 8:40 AM EDT (3/30)
Length of Visible Light 13h 31m
Length of Day
12h 36m
Waning Gibbous, 86% of the Moon is Illuminated
Mar 30
Waning Gibbous
Apr 3
Last Quarter
Apr 10
New
Apr 18
First Quarter
Apr 25
Full

Hourly Weather History & Observations

Time (EDT) Temp. Windchill Dew Point Humidity Pressure Visibility Wind Dir Wind Speed Gust Speed Precip Events Conditions
12:10 AM 32.0 °F - 26.6 °F 80% 30.16 in 10.0 mi Calm Calm - N/A   Clear
12:30 AM 32.0 °F - 26.6 °F 80% 30.16 in 10.0 mi Calm Calm - N/A   Clear
12:50 AM 32.0 °F - 26.6 °F 80% 30.16 in 10.0 mi Calm Calm - N/A   Clear
1:10 AM 30.2 °F - 26.6 °F 86% 30.17 in 10.0 mi Calm Calm - N/A   Clear
1:30 AM 28.4 °F - 26.6 °F 93% 30.16 in 10.0 mi Calm Calm - N/A   Clear
2:10 AM 28.4 °F - 26.6 °F 93% 30.16 in 10.0 mi Calm Calm - N/A   Clear
2:30 AM 28.4 °F - 26.6 °F 93% 30.16 in 10.0 mi Calm Calm - N/A   Clear
2:50 AM 28.4 °F - 24.8 °F 86% 30.16 in 10.0 mi Calm Calm - N/A   Clear
3:10 AM 28.4 °F - 26.6 °F 93% 30.16 in 10.0 mi Calm Calm - N/A   Clear
3:30 AM 26.6 °F - 24.8 °F 93% 30.16 in 10.0 mi Calm Calm - N/A   Clear
3:50 AM 26.6 °F - 24.8 °F 93% 30.16 in 10.0 mi Calm Calm - N/A   Clear
4:10 AM 26.6 °F - 24.8 °F 93% 30.16 in 10.0 mi Calm Calm - N/A   Clear
4:30 AM 26.6 °F - 24.8 °F 93% 30.16 in 10.0 mi Calm Calm - N/A   Clear
4:50 AM 26.6 °F - 24.8 °F 93% 30.16 in 10.0 mi Calm Calm - N/A   Clear
5:10 AM 26.6 °F - 24.8 °F 93% 30.16 in 10.0 mi Calm Calm - N/A   Clear
5:30 AM 26.6 °F - 24.8 °F 93% 30.16 in 10.0 mi Calm Calm - N/A   Clear
5:50 AM 26.6 °F - 24.8 °F 93% 30.16 in 10.0 mi Calm Calm - N/A   Clear
6:10 AM 24.8 °F - 24.8 °F 100% 30.17 in 10.0 mi Calm Calm - N/A   Clear
6:30 AM 24.8 °F - 24.8 °F 100% 30.17 in 10.0 mi Calm Calm - N/A   Clear
6:50 AM 24.8 °F - 23.0 °F 93% 30.17 in 10.0 mi Calm Calm - N/A   Clear
7:10 AM 24.8 °F - 23.0 °F 93% 30.18 in 10.0 mi Calm Calm - N/A   Clear
7:50 AM 28.4 °F - 24.8 °F 86% 30.19 in 10.0 mi Calm Calm - N/A   Clear
8:10 AM 32.0 °F - 28.4 °F 87% 30.19 in 10.0 mi Calm Calm - N/A   Clear
8:30 AM 37.4 °F - 32.0 °F 81% 30.19 in 10.0 mi Calm Calm - N/A   Clear
8:50 AM 42.8 °F 39.3 °F 28.4 °F 57% 30.19 in 10.0 mi West 5.8 mph - N/A   Clear
9:10 AM 44.6 °F 40.7 °F 28.4 °F 53% 30.20 in 10.0 mi West 6.9 mph - N/A   Clear
9:30 AM 46.4 °F 42.4 °F 28.4 °F 50% 30.20 in 10.0 mi NW 8.1 mph - N/A   Clear
9:50 AM 46.4 °F 42.9 °F 28.4 °F 50% 30.19 in 10.0 mi West 6.9 mph - N/A   Clear
10:10 AM 46.4 °F 43.5 °F 28.4 °F 50% 30.19 in 10.0 mi West 5.8 mph - N/A   Clear
10:30 AM 48.2 °F - 28.4 °F 46% 30.19 in 10.0 mi SW 4.6 mph - N/A   Clear
10:50 AM 48.2 °F - 26.6 °F 43% 30.19 in 10.0 mi West 5.8 mph - N/A   Clear
11:10 AM 50.0 °F - 26.6 °F 40% 30.19 in 10.0 mi WSW 5.8 mph - N/A   Clear
11:30 AM 50.0 °F - 26.6 °F 40% 30.18 in 10.0 mi Calm Calm - N/A   Clear
11:50 AM 50.0 °F - 26.6 °F 40% 30.18 in 10.0 mi WNW 8.1 mph - N/A   Clear
12:10 PM 51.8 °F - 23.0 °F 33% 30.17 in 10.0 mi West 5.8 mph - N/A   Clear
12:30 PM 51.8 °F - 24.8 °F 35% 30.16 in 10.0 mi NW 10.4 mph - N/A   Clear
12:50 PM 53.6 °F - 24.8 °F 33% 30.16 in 10.0 mi West 8.1 mph - N/A   Partly Cloudy
1:10 PM 51.8 °F - 23.0 °F 33% 30.15 in 10.0 mi West 8.1 mph - N/A   Scattered Clouds
1:30 PM 53.6 °F - 23.0 °F 30% 30.14 in 10.0 mi West 6.9 mph - N/A   Partly Cloudy
1:50 PM 51.8 °F - 23.0 °F 33% 30.13 in 10.0 mi WSW 6.9 mph - N/A   Partly Cloudy
2:10 PM 55.4 °F - 23.0 °F 29% 30.12 in 10.0 mi West 10.4 mph - N/A   Scattered Clouds
2:30 PM 55.4 °F - 23.0 °F 29% 30.12 in 10.0 mi WNW 11.5 mph 16.1 mph N/A   Mostly Cloudy
2:50 PM 55.4 °F - 23.0 °F 29% 30.11 in 10.0 mi WNW 3.5 mph - N/A   Scattered Clouds
3:10 PM 55.4 °F - 23.0 °F 29% 30.11 in 7.0 mi West 3.5 mph - N/A   Partly Cloudy
3:30 PM 55.4 °F - 23.0 °F 29% 30.11 in 10.0 mi West 8.1 mph - N/A   Partly Cloudy
3:50 PM 55.4 °F - 23.0 °F 29% 30.10 in 10.0 mi SW 6.9 mph - N/A   Scattered Clouds
4:10 PM 55.4 °F - 23.0 °F 29% 30.10 in 10.0 mi SW 10.4 mph - N/A   Scattered Clouds
4:30 PM 57.2 °F - 21.2 °F 25% 30.09 in 10.0 mi WSW 8.1 mph - N/A   Scattered Clouds
4:50 PM 55.4 °F - 19.4 °F 25% 30.09 in 10.0 mi SW 6.9 mph - N/A   Partly Cloudy
5:10 PM 55.4 °F - 19.4 °F 25% 30.09 in 10.0 mi WSW 6.9 mph - N/A   Clear
5:30 PM 55.4 °F - 19.4 °F 25% 30.09 in 10.0 mi SW 4.6 mph - N/A   Clear
5:50 PM 55.4 °F - 19.4 °F 25% 30.09 in 10.0 mi West 4.6 mph - N/A   Clear
6:10 PM 55.4 °F - 19.4 °F 25% 30.10 in 10.0 mi West 6.9 mph - N/A   Clear
6:30 PM 55.4 °F - 19.4 °F 25% 30.09 in 10.0 mi SW 3.5 mph - N/A   Clear
6:50 PM 53.6 °F - 19.4 °F 26% 30.10 in 10.0 mi SW 3.5 mph - N/A   Clear
7:10 PM 53.6 °F - 19.4 °F 26% 30.10 in 10.0 mi SW 4.6 mph - N/A   Clear
7:30 PM 50.0 °F - 19.4 °F 30% 30.10 in 10.0 mi SW 3.5 mph - N/A   Clear
7:50 PM 50.0 °F - 19.4 °F 30% 30.10 in 10.0 mi Calm Calm - N/A   Clear
8:10 PM 46.4 °F - 23.0 °F 40% 30.10 in 10.0 mi Calm Calm - N/A   Clear
8:30 PM 44.6 °F - 23.0 °F 43% 30.11 in 10.0 mi Calm Calm - N/A   Clear
8:50 PM 41.0 °F - 23.0 °F 49% 30.11 in 10.0 mi Calm Calm - N/A   Clear
9:10 PM 39.2 °F - 24.8 °F 56% 30.12 in 10.0 mi Calm Calm - N/A   Clear
9:30 PM 39.2 °F - 24.8 °F 56% 30.13 in 7.0 mi Calm Calm - N/A   Clear
9:50 PM 37.4 °F - 24.8 °F 60% 30.13 in 10.0 mi Calm Calm - N/A   Clear
10:10 PM 37.4 °F - 24.8 °F 60% 30.14 in 10.0 mi Calm Calm - N/A   Clear
10:30 PM 35.6 °F - 24.8 °F 65% 30.13 in 10.0 mi Calm Calm - N/A   Clear
10:50 PM 35.6 °F - 24.8 °F 65% 30.13 in 10.0 mi Calm Calm - N/A   Clear
11:10 PM 35.6 °F - 24.8 °F 65% 30.13 in 10.0 mi Calm Calm - N/A   Clear
11:30 PM 35.6 °F - 26.6 °F 70% 30.13 in 10.0 mi Calm Calm - N/A   Clear
11:50 PM 32.0 °F - 26.6 °F 80% 30.13 in 10.0 mi Calm Calm - N/A   Clear